Orbital Elements at Epoch 2459200.5 (2020-Dec-17.0) TDB
Reference: JPL 25 (heliocentric ecliptic J2000)
Element | Value | Uncertainty (1-sigma) | Units |
e | .1522058427987699 | 3.9011e-08 | |
a | 2.61437745425529 | 1.0668e-08 | au |
q | 2.216453930436261 | 1.0156e-07 | au |
i | 12.66356549318114 | 4.4939e-06 | deg |
node | 179.9980438814028 | 1.8274e-05 | deg |
peri | 81.10850285712587 | 2.2612e-05 | deg |
M | 205.6841669138698 | 1.4022e-05 | deg |
tp | 2459862.348895267987 (2022-Oct-09.84889527) | 6.1239e-05 | TDB |
period | 1544.012675377835 4.23 | 9.4505e-06 2.587e-08 | d yr |
n | .2331587076588632 | 1.4271e-09 | deg/d |
Q | 3.012300978074319 | 1.2292e-08 | au |
|
| | Orbit Determination Parameters
Additional Information
|